Altoona, PA

10:18 AM EDT on May 26, 2017 (GMT -0400)
Altoona-Blair County

Weather History for KAOO - April, 2013

Change the Weather History Date:

Wednesday, April 24, 2013

  Actual Average Record
Temperature  
Mean Temperature 58 °F 52 °F  
Max Temperature 72 °F 63 °F 86 °F (1960)
Min Temperature 43 °F 41 °F 28 °F (2002)
Degree Days  
Heating Degree Days 8 13  
Month to date heating degree days 415  
Since 1 July heating degree days 5829  
Cooling Degree Days 0 0  
Month to date cooling degree days 0  
Year to date cooling degree days 1  
Growing Degree Days 8 (Base 50)    
Moisture  
Dew Point 47 °F    
Average Humidity 72    
Maximum Humidity 94    
Minimum Humidity 49    
Precipitation  
Precipitation 0.50 in 0.11 in 1.64 in (1983)
Month to date precipitation 2.55  
Year to date precipitation 9.83  
Sea Level Pressure  
Sea Level Pressure 29.91 in    
Wind  
Wind Speed 9 mph (SW)    
Max Wind Speed 33 mph    
Max Gust Speed 44 mph    
Visibility 9 miles    
Events Fog , Rain , Thunderstorm    
T = Trace of Precipitation, MM = Missing Value Source: NWS Daily Summary

Daily Weather History Graph

Daily Weather History Graph

Search for Another Location

Airport or City:

Trip Planner

Search our weather history database for the weather conditions in past years. The results will help you decide how hot, cold, wet, or windy it might be!

Date:

Astronomy

Apr. 24, 2013 Rise Set
Actual Time 6:21 AM EDT 8:01 PM EDT
Civil Twilight 5:52 AM EDT 8:30 PM EDT
Nautical Twilight 5:17 AM EDT 9:05 PM EDT
Astronomical Twilight 4:40 AM EDT 9:43 PM EDT
Moon 7:02 PM EDT (4/24) 5:24 AM EDT (4/24)
Length of Visible Light 14h 37m
Length of Day
13h 40m
Waxing Gibbous, 98% of the Moon is Illuminated
Apr 24
Waxing Gibbous
Apr 25
Full
May 2
Last Quarter
May 9
New
May 18
First Quarter

Hourly Weather History & Observations

Time (EDT) Temp. Windchill Dew Point Humidity Pressure Visibility Wind Dir Wind Speed Gust Speed Precip Events Conditions
12:53 AM 46.9 °F - 37.9 °F 71% 30.07 in 10.0 mi South 4.6 mph - N/A   Partly Cloudy
1:53 AM 45.0 °F - 37.9 °F 76% 30.06 in 10.0 mi Calm Calm - N/A   Clear
2:53 AM 45.0 °F 41.2 °F 37.9 °F 76% 30.02 in 10.0 mi South 6.9 mph - N/A   Clear
3:53 AM 46.0 °F 43.9 °F 37.9 °F 73% 30.01 in 10.0 mi SSW 4.6 mph - N/A   Mostly Cloudy
4:53 AM 46.0 °F 43.9 °F 39.0 °F 76% 30.01 in 10.0 mi South 4.6 mph - N/A   Partly Cloudy
6:53 AM 43.0 °F - 39.0 °F 86% 30.01 in 10.0 mi Calm Calm - N/A   Clear
7:53 AM 48.0 °F - 41.0 °F 77% 29.99 in 10.0 mi Calm Calm - N/A   Clear
8:53 AM 52.0 °F - 44.1 °F 74% 29.98 in 10.0 mi SE 4.6 mph - 0.00 in   Partly Cloudy
9:53 AM 55.9 °F - 45.0 °F 67% 29.95 in 10.0 mi Calm Calm - N/A   Clear
10:53 AM 62.1 °F - 46.9 °F 58% 29.93 in 10.0 mi South 6.9 mph - N/A   Mostly Cloudy
11:53 AM 66.0 °F - 46.9 °F 50% 29.88 in 10.0 mi South 12.7 mph - N/A   Clear
12:53 PM 69.1 °F - 50.0 °F 51% 29.84 in 10.0 mi South 9.2 mph - N/A   Clear
1:53 PM 69.1 °F - 48.9 °F 49% 29.83 in 10.0 mi SSE 12.7 mph - N/A   Scattered Clouds
2:53 PM 70.0 °F - 50.0 °F 49% 29.80 in 10.0 mi South 17.3 mph 24.2 mph N/A   Partly Cloudy
3:53 PM 72.0 °F - 52.0 °F 49% 29.73 in 10.0 mi SSE 15.0 mph 26.5 mph N/A   Partly Cloudy
4:26 PM 66.2 °F - 53.6 °F 64% 29.82 in 10.0 mi West 26.5 mph 39.1 mph 0.00 in Rain , Thunderstorm Light Rain
4:31 PM 62.6 °F - 53.6 °F 72% 29.84 in 0.8 mi West 33.4 mph 43.7 mph 0.20 in Rain , Thunderstorm Rain
4:38 PM 57.2 °F - 53.6 °F 88% 29.83 in 0.2 mi WSW 13.8 mph 43.7 mph 0.46 in Fog , Rain , Thunderstorm Heavy Rain
4:45 PM 59.0 °F - 55.4 °F 88% 29.80 in 1.0 mi West 6.9 mph - 0.49 in Rain , Thunderstorm Heavy Rain
4:50 PM 59.0 °F - 55.4 °F 88% 29.80 in 3.0 mi SW 3.5 mph - 0.50 in Rain , Thunderstorm Light Rain
4:53 PM 59.0 °F - 57.0 °F 93% 29.81 in 6.0 mi SSW 5.8 mph - 0.50 in Rain , Thunderstorm Light Rain
5:01 PM 59.0 °F - 57.2 °F 94% 29.81 in 10.0 mi South 6.9 mph - 0.00 in   Overcast
5:53 PM 60.1 °F - 57.9 °F 93% 29.81 in 10.0 mi South 6.9 mph - 0.00 in   Mostly Cloudy
6:53 PM 63.0 °F - 53.1 °F 70% 29.80 in 10.0 mi SW 17.3 mph - N/A   Scattered Clouds
7:53 PM 62.1 °F - 50.0 °F 65% 29.81 in 10.0 mi West 18.4 mph 38.0 mph N/A   Overcast
8:22 PM 53.6 °F - 46.4 °F 77% 29.89 in 10.0 mi West 25.3 mph 36.8 mph 0.00 in   Overcast
8:53 PM 51.1 °F - 43.0 °F 74% 29.95 in 10.0 mi WNW 24.2 mph 31.1 mph 0.00 in   Overcast
9:53 PM 45.0 °F 36.6 °F 37.0 °F 74% 30.03 in 10.0 mi West 21.9 mph 29.9 mph 0.00 in   Overcast
10:53 PM - - - N/A% 30.07 in 10.0 mi WNW 12.7 mph 18.4 mph 0.00 in   Overcast
11:53 PM - - - N/A% 30.09 in 10.0 mi WNW 20.7 mph 32.2 mph 0.00 in   Overcast